Flag Weather past 2 weeks in Hayward, California, U.S.A.

Now
61 °F

Sunny.


Feels Like: 61 °F
Forecast: 48 / 66 °F
Wind: No wind

Location: Hayward Air Terminal

Current Time: Nov 27, 2014 at 12:05:56 PM

Latest Report: Nov 27, 2014 at 10:54 AM


Visibility: 7 mi

Pressure: 30.19 "Hg

Humidity: 65%

Dew point: 49 °F

Location of HaywardLocation

Historic Weather in Hayward — Graph

°F

Hayward temperature yesterday

Maximum temperature yesterday: 61 °F (at 10:54 AM)
Minimum temperature yesterday: 44 °F (at 6:54 AM)
Average temperature yesterday: 54 °F

Past Weeks' High & Low Weather Summary

 TemperatureHumidityPressure
High68 °F (Nov 17, 12:54 PM)100% (Nov 13, 12:54 AM)30.49 "Hg (Nov 13, 12:54 AM)
Low43 °F (Nov 25, 6:54 AM)12% (Nov 16, 1:54 PM)29.95 "Hg (Nov 13, 4:54 AM)
Average57 °F73%30.19 "Hg
* Reported Nov 12 10:54 AM — Nov 27 10:54 AM, Hayward, Weather by CustomWeather, © 2014

Note: Actual official high and low records may vary slightly from our data, if they occured in-between our weather recording intervals... More about our weather records

Advertising

Hayward weather history for previous 24 hours

 ConditionsComfort  
Time TempWeatherWind HumidityBarometerVisibility
10:54 AM
Nov 27
61 °FSunny.No wind65%30.19 "Hg7 mi
9:54 AM57 °FSunny.3 mph78%30.21 "Hg6 mi
8:54 AM54 °FSunny.No wind77%30.22 "Hg7 mi
7:54 AM49 °FFog.3 mph86%30.21 "Hg5 mi
6:54 AM49 °FClear.5 mph84%30.20 "Hg7 mi
5:54 AM44 °FClear.3 mph100%30.19 "Hg7 mi
4:54 AM46 °FFog.No wind96%30.19 "Hg6 mi
3:54 AM49 °FClear.No wind90%30.20 "Hg7 mi
2:54 AM50 °FClear.3 mph86%30.21 "Hg7 mi
1:54 AM50 °FClear.No wind86%30.22 "Hg8 mi
12:54 AM50 °FClear.6 mph86%30.21 "Hg8 mi
11:54 PM
Nov 26
51 °FClear.6 mph86%30.24 "Hg7 mi
10:54 PM50 °FClear.5 mph89%30.23 "Hg8 mi
9:54 PM52 °FClear.6 mph83%30.24 "Hg8 mi
8:54 PM52 °FClear.No wind83%30.24 "Hg8 mi
7:54 PM55 °FClear.6 mph77%30.24 "Hg9 mi
6:54 PM57 °FClear.3 mph72%30.23 "Hg9 mi
5:54 PM57 °FClear.5 mph74%30.23 "Hg10 mi
4:54 PM60 °FClear.No wind72%30.23 "Hg10 mi
3:54 PM60 °FSunny.No wind69%30.23 "Hg10 mi
2:54 PM60 °FSunny.6 mph67%30.24 "Hg7 mi
1:54 PM59 °FSunny.7 mph67%30.24 "Hg6 mi
12:54 PM58 °FSunny.8 mph67%30.26 "Hg6 mi
Weather by CustomWeather, © 2014

See weather overviewHow to use our weather pages